Tracking 19564 objects as of 19-Mar-2019
HD Live streaming from Space Station
objects crossing your sky now

SL-14 R/B

Track SL-14 R/B now!
10-day predictions
SL-14 R/B is classified as:


NORAD ID: 20511
Int'l Code: 1990-018B
Perigee: 624.1 km
Apogee: 648.8 km
Inclination: 82.5 °
Period: 97.3 minutes
Semi major axis: 7007 km
RCS: 4.7836 m2 (large)
Launch date: February 28, 1990
Source: Commonwealth of Independent States (former USSR) (CIS)
Launch site: PLESETSK MISSILE AND SPACE COMPLEX (PKMTR)

Note: This is a ROCKET BODY
aabbcc
Your satellite tracking list
Your tracking list is empty




NASA's NSSDC Master Catalog

Two Line Element Set (TLE):
1 20511U 90018B   19077.50826310 +.00000088 +00000-0 +85636-5 0  9995
2 20511 082.5203 078.7246 0017656 171.5199 302.9141 14.80006275545527
Source of the keplerian elements: AFSPC